[[{"header":{"parameterUnit":"m.s-1","parameterCategory":1,"la1":30.2991,"la2":30.254,"lo1":-89.0895,"lo2":-89.0444,"dy":0.0017,"dx":0.0017,"nx":28,"ny":28,"refTime":"2023-10-21T03:00:00:Z","depth":0,"parameterNumber":2,"parameterNumberName":"U-component_of_WINDS"},"data":[0,0,0,0,0,0,0,0,0,0,0,0,0,0,0,0,0,0,0,0,0,0,0,0,0,0,0,0,0,0,0,0,0,0,0,0,0,0,0,0,0,0,0,0,0,0,0,0,0,0,0,0,0,0,0,0,0,0,-3.6314,-3.6313,0,-3.6291,-3.629,-3.629,-3.6211,-3.6209,-3.6208,-3.6206,-3.6183,-3.6184,-3.6185,0,0,0,0,0,0,0,0,0,0,0,0,0,-3.6291,-3.6292,-3.6314,-3.6313,-3.6313,-3.6291,-3.629,-3.629,-3.6212,-3.6209,-3.6207,-3.6205,-3.6183,-3.6184,-3.6185,0,0,0,0,0,0,0,0,0,0,0,0,0,-3.6288,-3.6292,-3.6314,-3.6271,-3.6267,-3.6291,-3.629,-3.629,-3.6212,-3.6209,-3.6207,-3.6204,-3.6182,-3.6184,-3.6185,-3.6248,0,0,-3.619,-3.6191,0,0,0,0,0,0,0,0,-3.6288,-3.6289,-3.6278,-3.6274,-3.627,-3.6251,-3.6274,-3.6276,-3.6213,-3.6233,-3.6206,-3.6203,-3.6208,-3.6207,-3.6209,-3.6247,-3.6246,-3.619,-3.6191,-3.6192,-3.6192,0,0,0,0,0,0,0,-3.6288,-3.6289,-3.6304,-3.6278,-3.6273,-3.6254,-3.625,-3.6274,-3.6236,-3.6231,-3.6225,-3.6224,-3.6205,-3.6207,-3.6208,-3.6246,-3.619,-3.6192,-3.6193,-3.6193,-3.6338,-3.634,0,0,0,0,0,0,-3.6295,-3.629,-3.6305,-3.6304,-3.6273,-3.6256,-3.6252,-3.626,-3.6235,-3.6229,-3.6226,-3.622,-3.6206,-3.6206,-3.6206,-3.6281,-3.6192,-3.6193,-3.6194,-3.6335,-3.6338,-3.6341,0,0,0,0,0,0,-3.6294,-3.6297,-3.6306,-3.6295,-3.6295,-3.626,-3.6268,-3.6261,-3.6263,-3.6231,-3.6224,-3.6235,-3.6204,-3.6204,-3.6239,-3.6279,-3.6194,-3.6195,-3.6331,-3.6336,-3.634,-3.6429,0,0,0,0,0,0,-3.6294,-3.6297,-3.632,-3.6296,-3.6296,-3.6339,-3.6271,-3.6262,-3.6266,-3.6258,-3.6238,-3.6232,-3.6202,-3.6237,-3.6241,-3.6279,-3.6197,-3.6328,-3.6333,-3.6338,-3.6422,-3.6436,-3.6447,0,0,0,0,0,-3.6294,-3.6346,-3.6322,-3.6324,-3.6324,-3.6341,-3.6341,-3.6305,-3.6269,-3.6293,-3.6273,-3.6233,-3.6273,-3.6241,-3.6245,-3.6284,-3.6325,-3.6332,-3.6338,-3.6417,-3.6433,-3.6447,0,0,0,0,0,0,-3.6375,-3.6342,-3.6315,-3.6361,-3.6355,-3.6328,-3.6356,-3.6323,-3.6327,-3.6319,-3.6274,-3.627,-3.6312,-3.6301,-3.6266,-3.6345,-3.6293,-3.63,-3.6351,-3.6367,-3.6379,-3.6382,-3.6198,0,0,0,0,0,-3.6398,-3.6414,-3.6384,-3.6428,-3.6426,-3.6392,-3.6398,-3.6371,-3.6363,-3.636,-3.6342,-3.6336,-3.6348,-3.6356,-3.6365,-3.6419,-3.6415,-3.6449,-3.6461,-3.6472,-3.6479,-3.651,-3.6525,-3.6363,-3.6363,-3.6363,0,0,-3.6446,-3.643,-3.6443,-3.6444,-3.6436,-3.6455,-3.639,-3.6412,-3.6427,-3.6363,-3.6396,-3.6383,-3.6373,-3.6419,-3.6438,-3.6411,-3.6523,-3.648,-3.6488,-3.649,-3.6518,-3.6534,-3.6548,-3.6367,-3.6366,-3.6366,0,0,-3.6544,-3.6533,-3.6569,-3.6562,-3.6551,-3.6529,-3.6537,-3.6516,-3.6506,-3.6537,-3.6491,-3.6507,-3.6527,-3.6523,-3.6523,-3.6622,-3.6586,-3.6626,-3.6692,-3.6722,-3.6735,-3.6746,-3.6784,-3.6798,-3.6633,-3.6633,-3.6633,0,-3.6605,-3.6632,-3.6592,-3.6618,-3.6621,-3.6564,-3.6601,-3.6597,-3.6589,-3.6593,-3.6562,-3.6588,-3.6577,-3.6623,-3.6647,-3.6648,-3.6659,-3.6628,-3.6736,-3.6747,-3.6757,-3.6793,-3.6807,-3.6638,-3.6638,-3.6637,-3.6637,0,-3.6709,-3.6729,-3.6759,-3.6754,-3.676,-3.6792,-3.6757,-3.6768,-3.674,-3.6721,-3.6756,-3.6741,-3.6747,-3.6755,-3.6728,-3.6797,-3.6781,-3.6744,-3.6691,-3.6778,-3.6811,-3.6824,-3.6645,-3.6644,-3.6642,-3.6641,0,0,-3.6858,-3.6832,-3.6844,-3.6842,-3.6826,-3.6841,-3.687,-3.6876,-3.6888,-3.6884,-3.6909,-3.6928,-3.6895,-3.6896,-3.6867,-3.6894,-3.6977,-3.6854,-3.6853,-3.688,-3.7055,-3.7086,-3.7102,-3.6952,-3.6954,-3.6956,-3.7057,0,-3.6953,-3.7003,-3.6968,-3.7024,-3.7042,-3.699,-3.7016,-3.7009,-3.6993,-3.7006,-3.6987,-3.7003,-3.6956,-3.6956,-3.698,-3.6962,-3.7012,-3.6953,-3.6977,-3.6978,-3.6984,-3.7118,-3.7149,-3.7245,-3.7069,-3.7071,-3.7073,0,-3.7071,-3.7075,-3.7133,-3.7115,-3.7122,-3.7146,-3.715,-3.7163,-3.7156,-3.7141,-3.7143,-3.7109,-3.7138,-3.7084,-3.7125,-3.7086,-3.7093,-3.7086,-3.7089,-3.7092,-3.7033,-3.7127,-3.7275,-3.7291,-3.7092,-3.7091,-3.7089,0,-3.7178,-3.7196,-3.7234,-3.7234,-3.7213,-3.7232,-3.7225,-3.7214,-3.7221,-3.7224,-3.7229,-3.7235,-3.724,-3.7246,-3.7215,-3.7178,-3.7261,-3.7203,-3.7252,-3.7253,-3.7273,-3.7273,-3.7427,-3.7274,-3.7273,-3.7273,-3.7273,0,-3.7289,-3.7327,-3.7282,-3.7305,-3.7347,-3.7307,-3.735,-3.7336,-3.7328,-3.7349,-3.7303,-3.7323,-3.728,-3.7296,-3.7272,-3.7311,-3.7312,-3.7303,-3.7297,-3.7309,-3.7311,-3.7315,-3.7309,-3.7277,-3.7276,-3.7275,-3.7275,0,-3.7416,-3.7386,-3.7425,-3.7403,-3.7398,-3.7431,-3.7412,-3.7434,-3.7414,-3.7441,-3.7445,-3.7414,-3.7432,-3.7401,-3.7413,-3.7397,-3.7453,-3.7434,-3.7456,-3.7452,-3.7503,-3.7499,-3.7667,-3.7688,-3.7519,-3.7521,-3.7522,0,-3.749,-3.7518,-3.75,-3.7511,-3.7507,-3.7524,-3.7532,-3.7493,-3.7503,-3.7497,-3.752,-3.7533,-3.7542,-3.7573,-3.7552,-3.7562,-3.7546,-3.7603,-3.7547,-3.7559,-3.755,-3.755,-3.7554,-3.7616,-3.7618,-3.762,-3.7621,0,-3.7626,-3.7611,-3.7623,-3.763,-3.764,-3.7644,-3.7645,-3.7656,-3.7616,-3.7629,-3.7646,-3.7654,-3.7668,-3.7682,-3.7688,-3.7681,-3.7646,-3.7639,-3.7651,-3.7665,-3.7678,-3.7675,-3.7491,-3.7636,-3.7634,-3.7633,-3.7632,-3.7632,-3.7731,-3.7755,-3.7747,-3.7762,-3.7759,-3.7761,-3.7781,-3.7764,-3.7778,-3.7787,-3.7763,-3.7787,-3.778,-3.7784,-3.7781,-3.78,-3.7774,-3.7791,-3.7796,-3.7801,-3.7811,-3.7673,-3.78,-3.7799,-3.7799,-3.7799,-3.7798,0,-3.7867,-3.7859,-3.7874,-3.7877,-3.789,-3.7854,-3.7854,-3.7867,-3.7889,-3.7885,-3.7896,-3.7917,-3.7932,-3.7912,-3.7924,-3.7943,-3.7927,-3.7947,-3.7947,-3.7947,-3.7831,-3.7821,-3.796,-3.796,-3.796,-3.796,-3.796,-3.796,-3.794,-3.7979,-3.7963,-3.8001,-3.7993,-3.8017,-3.802,-3.8022,-3.802,-3.8046,-3.8058,-3.8045,-3.8036,-3.8047,-3.8059,-3.8053,-3.8061,-3.8088,-3.8076,-3.797,-3.7954,-3.7939,-3.7929,-3.8089,-3.8089,-3.819,-3.8191,-3.8192]},{"header":{"parameterUnit":"m.s-1","parameterCategory":1,"la1":30.2991,"la2":30.254,"lo1":-89.0895,"lo2":-89.0444,"dy":0.0017,"dx":0.0017,"nx":28,"ny":28,"refTime":"2023-10-21T03:00:00:Z","depth":0,"parameterNumber":3,"parameterNumberName":"V-component_of_WINDS"},"data":[0,0,0,0,0,0,0,0,0,0,0,0,0,0,0,0,0,0,0,0,0,0,0,0,0,0,0,0,0,0,0,0,0,0,0,0,0,0,0,0,0,0,0,0,0,0,0,0,0,0,0,0,0,0,0,0,0,0,-0.9378,-0.9378,0,-0.9404,-0.9405,-0.9405,-0.9377,-0.9376,-0.9375,-0.9374,-0.9402,-0.9403,-0.9405,0,0,0,0,0,0,0,0,0,0,0,0,0,-0.9303,-0.9305,-0.9378,-0.9378,-0.9379,-0.9404,-0.9405,-0.9405,-0.9377,-0.9376,-0.9375,-0.9374,-0.9401,-0.9403,-0.9405,0,0,0,0,0,0,0,0,0,0,0,0,0,-0.9333,-0.9305,-0.9378,-0.9368,-0.9367,-0.9404,-0.9405,-0.9405,-0.9378,-0.9376,-0.9374,-0.9373,-0.94,-0.9403,-0.9406,-0.9454,0,0,-0.9414,-0.9415,0,0,0,0,0,0,0,0,-0.9332,-0.9336,-0.9369,-0.9369,-0.9368,-0.9386,-0.9388,-0.9422,-0.9378,-0.9374,-0.9374,-0.9372,-0.9398,-0.9401,-0.9409,-0.9455,-0.9456,-0.9414,-0.9415,-0.9416,-0.9417,0,0,0,0,0,0,0,-0.933,-0.9335,-0.9388,-0.937,-0.9369,-0.9362,-0.9364,-0.9395,-0.9395,-0.9374,-0.9372,-0.9376,-0.9397,-0.9407,-0.9409,-0.9457,-0.9414,-0.9416,-0.9418,-0.9419,-0.9543,-0.9545,0,0,0,0,0,0,-0.9329,-0.9333,-0.9388,-0.9389,-0.9345,-0.9365,-0.9367,-0.9382,-0.9394,-0.9394,-0.9377,-0.9374,-0.9403,-0.9406,-0.941,-0.9468,-0.9416,-0.9419,-0.942,-0.9542,-0.9544,-0.9546,0,0,0,0,0,0,-0.9327,-0.9334,-0.9387,-0.9361,-0.9367,-0.9368,-0.9384,-0.9383,-0.9392,-0.9396,-0.9396,-0.9387,-0.9402,-0.9407,-0.9443,-0.9468,-0.942,-0.9422,-0.954,-0.9542,-0.9545,-0.9583,0,0,0,0,0,0,-0.9325,-0.9333,-0.9352,-0.9361,-0.9368,-0.9419,-0.9385,-0.9385,-0.9397,-0.9394,-0.9405,-0.9406,-0.9401,-0.9439,-0.9446,-0.9471,-0.9424,-0.9537,-0.9541,-0.9544,-0.9579,-0.9586,-0.9593,0,0,0,0,0,-0.9323,-0.9362,-0.9353,-0.936,-0.9392,-0.9421,-0.9425,-0.9418,-0.9399,-0.9418,-0.942,-0.9405,-0.9464,-0.9443,-0.945,-0.9477,-0.9536,-0.954,-0.9544,-0.9576,-0.9585,-0.9592,0,0,0,0,0,0,-0.9356,-0.9363,-0.9353,-0.9397,-0.9408,-0.9416,-0.9439,-0.9428,-0.9445,-0.9441,-0.9432,-0.9435,-0.9474,-0.9479,-0.9455,-0.9524,-0.9497,-0.9502,-0.9519,-0.9528,-0.9534,-0.9533,-0.9427,0,0,0,0,0,-0.9368,-0.9391,-0.9396,-0.9434,-0.944,-0.9439,-0.9451,-0.9445,-0.9457,-0.9462,-0.9466,-0.9478,-0.9499,-0.9514,-0.9533,-0.958,-0.9582,-0.9601,-0.9608,-0.9613,-0.9618,-0.9643,-0.9651,-0.9559,-0.9559,-0.9559,0,0,-0.9394,-0.9401,-0.9416,-0.9441,-0.9449,-0.9473,-0.9443,-0.947,-0.9487,-0.9466,-0.95,-0.9504,-0.9517,-0.9558,-0.9577,-0.9564,-0.9644,-0.9618,-0.9622,-0.9624,-0.9647,-0.9656,-0.9664,-0.9561,-0.9561,-0.956,0,0,-0.9454,-0.9461,-0.9493,-0.9502,-0.9514,-0.9513,-0.9521,-0.953,-0.9532,-0.9566,-0.955,-0.9571,-0.9607,-0.9617,-0.9627,-0.9689,-0.9676,-0.9695,-0.973,-0.9754,-0.9761,-0.9768,-0.979,-0.9798,-0.97,-0.97,-0.97,0,-0.9485,-0.952,-0.9511,-0.9539,-0.955,-0.9531,-0.9564,-0.9572,-0.9591,-0.9599,-0.9584,-0.9629,-0.9636,-0.9679,-0.9694,-0.9703,-0.9711,-0.9694,-0.9761,-0.9767,-0.9773,-0.9794,-0.9803,-0.9702,-0.9702,-0.9702,-0.9702,0,-0.9557,-0.9582,-0.9606,-0.9624,-0.9638,-0.9668,-0.9664,-0.9679,-0.9671,-0.9672,-0.9707,-0.9714,-0.9735,-0.9745,-0.9738,-0.9787,-0.9778,-0.9762,-0.9735,-0.9784,-0.9804,-0.9812,-0.9706,-0.9705,-0.9704,-0.9704,0,0,-0.964,-0.9652,-0.9661,-0.9669,-0.968,-0.9699,-0.9728,-0.9748,-0.9761,-0.9774,-0.9798,-0.9829,-0.9814,-0.9825,-0.9818,-0.9839,-0.9888,-0.982,-0.982,-0.9833,-0.9943,-0.9955,-0.9965,-0.9879,-0.988,-0.9882,-0.9942,0,-0.97,-0.975,-0.9742,-0.9791,-0.9813,-0.9794,-0.9819,-0.9829,-0.983,-0.9849,-0.985,-0.9872,-0.985,-0.9856,-0.9876,-0.9878,-0.991,-0.9873,-0.9901,-0.9903,-0.99,-0.9975,-0.9989,-1.0045,-0.9949,-0.995,-0.9951,0,-0.9777,-0.9792,-0.9843,-0.985,-0.9859,-0.9882,-0.9899,-0.9918,-0.9928,-0.9927,-0.9939,-0.9929,-0.9957,-0.9929,-0.9968,-0.9944,-0.9954,-0.9957,-0.9959,-0.9962,-0.9931,-0.9981,-1.0063,-1.0072,-0.9963,-0.9962,-0.9962,0,-0.9832,-0.9865,-0.99,-0.9907,-0.9917,-0.9933,-0.9938,-0.9947,-0.9959,-0.9974,-0.9982,-1.0,-1.001,-1.0024,-1.0019,-0.9999,-1.0059,-1.0031,-1.006,-1.006,-1.0074,-1.0073,-1.016,-1.008,-1.008,-1.008,-1.0079,0,-0.99,-0.9932,-0.9925,-0.9946,-0.9981,-0.9972,-1.0006,-1.0009,-1.0017,-1.0038,-1.0023,-1.0043,-1.0034,-1.0054,-1.005,-1.0083,-1.0088,-1.0088,-1.0086,-1.0089,-1.009,-1.0097,-1.0093,-1.0082,-1.0081,-1.0081,-1.0081,0,-0.9969,-0.9965,-1.0001,-1.0007,-1.0009,-1.0035,-1.004,-1.006,-1.0058,-1.0086,-1.0091,-1.009,-1.0112,-1.0108,-1.0133,-1.013,-1.0171,-1.0165,-1.0168,-1.0167,-1.0196,-1.0193,-1.0291,-1.0303,-1.0215,-1.0216,-1.0216,0,-1.0013,-1.0037,-1.0045,-1.0058,-1.0064,-1.0085,-1.0097,-1.0089,-1.0102,-1.0116,-1.0134,-1.0154,-1.0171,-1.0207,-1.0208,-1.0227,-1.0221,-1.0254,-1.0224,-1.0226,-1.0222,-1.0221,-1.0223,-1.026,-1.0261,-1.0262,-1.0263,0,-1.0092,-1.0088,-1.0107,-1.0124,-1.0139,-1.0152,-1.0164,-1.0175,-1.0168,-1.0184,-1.0206,-1.0219,-1.0243,-1.0264,-1.0281,-1.0286,-1.0273,-1.0272,-1.028,-1.0283,-1.0284,-1.0285,-1.0185,-1.027,-1.0269,-1.0269,-1.0268,-1.0268,-1.015,-1.017,-1.0179,-1.0199,-1.0207,-1.0218,-1.0237,-1.0238,-1.0256,-1.0276,-1.0269,-1.0295,-1.0304,-1.0326,-1.0332,-1.0352,-1.034,-1.0351,-1.0354,-1.0357,-1.0361,-1.028,-1.0355,-1.0355,-1.0355,-1.0355,-1.0354,0,-1.0228,-1.0232,-1.0251,-1.0268,-1.0284,-1.027,-1.0282,-1.0296,-1.0319,-1.0328,-1.0344,-1.037,-1.039,-1.0392,-1.0411,-1.0426,-1.0421,-1.0431,-1.0431,-1.0432,-1.037,-1.0362,-1.0436,-1.0436,-1.0436,-1.0435,-1.0435,-1.0435,-1.027,-1.0304,-1.0301,-1.0338,-1.0342,-1.0367,-1.0375,-1.0386,-1.0393,-1.0422,-1.0438,-1.044,-1.0446,-1.0465,-1.0483,-1.0483,-1.0491,-1.0504,-1.0502,-1.0444,-1.0436,-1.0429,-1.0421,-1.0505,-1.0505,-1.0561,-1.0562,-1.0562]}]]